STARLINK AQ

Last updated on June 19, 2020, 12:02 a.m. UTC

1 45768U 20038AQ  20170.75001157  .00114751  11275-4  14246-3 0  9998
2 45768  52.9997 271.8086 0111385  69.6122 147.0244 15.96145366  1953

Satellite is not in orbit.